Weather in Makaryev

Russia / Kostroma Oblast     57°52′48″N   43°48′28″E
temp.,
°C
wind,
m/s
gust,
m/s
humid.,
%
clouds,
%
prec.,
mm/h
press.,
hPa
HPBL,
m
23 april, fri
fri2300:00+7s31181100 0.0 1019345
03:00+6s398878 0.0 1019268
06:00+6sse3108282 0.0 1019360
09:00+11s59616 0.0 1020644
12:00+15s694728 0.0 10191827
15:00+16s584491 0.0 10172356
18:00+13sse5115963 0.1 1017906
21:00+9se3977100 0.4 1017266
24 april, sat
sat2400:00+8se3117573 0.0 1016291
03:00+6se3108386 0.0 1015226
06:00+7se4118633 0.0 1013350
09:00+12se6116674 0.1 1012965
12:00+15se794734 0.5 10101951
15:00+14ese6852100 0.6 10081828
18:00+11ese61067100 0.1 10061059
21:00+8ese61281100 0.1 1005822
25 april, sun
sun2500:00+6ese5981100 0.0 1003971
03:00+6e5987100 0.0 1000765
06:00+6e4790100 0.3 998941
09:00+6e3593100 1.9 997970
12:00+5e1293100 2.1 998778
15:00+1w61497100 8.3 1000661
18:00+1w71697100 6.1 1002976
21:00+2w71597100 10.5 10031132
26 april, mon
mon2600:00+1wsw71494100 1.8 10051021
03:00+1wsw6139098 1.9 1006814
06:00+1wsw5128994 0.0 1007648
09:00+4wsw51080100 0.0 10081008
12:00+7wsw696299 0.1 10091989
15:00+7wsw586117 0.3 10091614
18:00+6sw377254 0.3 1009400
21:00+1ssw229127 0.4 101031
27 april, tue
tue2700:000sw129360 0.0 100916
03:00−1sw1193100 0.0 100810
06:00+2wnw1184100 0.0 100752
09:00+6wnw016694 0.1 1006568
12:00+8nw3543100 0.4 10052384
15:00+9wnw454573 0.4 10051876
18:00+7wnw486119 0.3 1005770
21:00+2w37835 0.3 1006120